Time,TemperatureF,DewpointF,PressureIn,WindDirection,WindDirectionDegrees,WindSpeedMPH,WindSpeedGustMPH,Humidity,HourlyPrecipIn,Conditions,Clouds,dailyrainin,SoftwareType,DateUTC
2013-03-15 07:45:00,53.5,33.7,30.17,WNW,300,0.0,1.0,47,0.00,,,0.00,Wunderground v.1.15,2013-03-15 14:45:00,
2013-03-15 07:50:00,54.1,33.8,30.17,WNW,300,0.0,1.0,46,0.00,,,0.00,Wunderground v.1.15,2013-03-15 14:50:00,
2013-03-15 08:05:00,54.2,34.4,30.17,SE,135,0.0,0.0,47,0.00,,,0.00,Wunderground v.1.15,2013-03-15 15:05:00,
2013-03-15 08:21:00,54.9,34.5,30.17,NNE,24,1.0,1.0,46,0.00,,,0.00,Wunderground v.1.15,2013-03-15 15:21:00,
2013-03-15 08:25:00,55.5,35.0,30.18,NE,44,1.0,1.0,46,0.00,,,0.00,Wunderground v.1.15,2013-03-15 15:25:00,
2013-03-15 08:30:00,55.9,34.3,30.18,NNE,19,1.0,1.0,44,0.00,,,0.00,Wunderground v.1.15,2013-03-15 15:30:00,
2013-03-15 08:40:00,57.4,34.5,30.19,NE,36,1.0,1.0,42,0.00,,,0.00,Wunderground v.1.15,2013-03-15 15:40:00,
2013-03-15 08:45:00,58.4,34.2,30.18,NNE,24,1.0,1.0,40,0.00,,,0.00,Wunderground v.1.15,2013-03-15 15:45:00,
2013-03-15 08:55:00,60.7,34.9,30.18,NE,50,0.0,0.0,38,0.00,,,0.00,Wunderground v.1.15,2013-03-15 15:55:00,
2013-03-15 09:00:00,61.3,34.1,30.18,East,99,0.0,1.0,36,0.00,,,0.00,Wunderground v.1.15,2013-03-15 16:00:00,
2013-03-15 09:10:00,61.8,34.5,30.18,East,98,0.0,0.0,36,0.00,,,0.00,Wunderground v.1.15,2013-03-15 16:10:00,
2013-03-15 09:15:00,62.4,34.4,30.18,SE,136,1.0,2.0,35,0.00,,,0.00,Wunderground v.1.15,2013-03-15 16:15:00,
2013-03-15 09:25:00,63.8,35.6,30.18,SSE,155,2.0,2.0,35,0.00,,,0.00,Wunderground v.1.15,2013-03-15 16:25:00,
2013-03-15 09:30:00,64.0,34.3,30.18,East,97,1.0,1.0,33,0.00,,,0.00,Wunderground v.1.15,2013-03-15 16:30:00,
2013-03-15 09:40:00,64.9,35.1,30.18,ESE,113,1.0,1.0,33,0.00,,,0.00,Wunderground v.1.15,2013-03-15 16:40:00,
2013-03-15 09:45:00,64.6,33.3,30.18,NNE,21,2.0,2.0,31,0.00,,,0.00,Wunderground v.1.15,2013-03-15 16:45:00,
2013-03-15 09:55:00,64.9,33.5,30.18,SSW,207,1.0,2.0,31,0.00,,,0.00,Wunderground v.1.15,2013-03-15 16:55:00,
2013-03-15 10:00:00,65.8,34.3,30.18,ENE,60,1.0,1.0,31,0.00,,,0.00,Wunderground v.1.15,2013-03-15 17:00:00,
2013-03-15 10:10:00,66.8,32.6,30.18,SE,141,2.0,2.0,28,0.00,,,0.00,Wunderground v.1.15,2013-03-15 17:10:00,
2013-03-15 10:15:00,67.0,32.8,30.18,East,84,1.0,2.0,28,0.00,,,0.00,Wunderground v.1.15,2013-03-15 17:15:00,
2013-03-15 10:25:00,67.7,34.3,30.18,South,183,1.0,1.0,29,0.00,,,0.00,Wunderground v.1.15,2013-03-15 17:25:00,
2013-03-15 10:31:00,68.6,34.2,30.18,East,82,1.0,1.0,28,0.00,,,0.00,Wunderground v.1.15,2013-03-15 17:31:00,
2013-03-15 10:40:00,69.5,34.0,30.17,ESE,119,1.0,1.0,27,0.00,,,0.00,Wunderground v.1.15,2013-03-15 17:40:00,
2013-03-15 10:45:00,69.3,33.9,30.17,SSE,153,1.0,1.0,27,0.00,,,0.00,Wunderground v.1.15,2013-03-15 17:45:00,
2013-03-15 10:55:00,69.9,34.4,30.17,East,79,1.0,2.0,27,0.00,,,0.00,Wunderground v.1.15,2013-03-15 17:55:00,
2013-03-15 11:00:00,69.8,32.4,30.17,North,2,1.0,1.0,25,0.00,,,0.00,Wunderground v.1.15,2013-03-15 18:00:00,
2013-03-15 11:10:00,70.6,34.0,30.16,East,97,1.0,1.0,26,0.00,,,0.00,Wunderground v.1.15,2013-03-15 18:10:00,
2013-03-15 11:15:00,71.5,33.8,30.16,NE,46,1.0,1.0,25,0.00,,,0.00,Wunderground v.1.15,2013-03-15 18:15:00,
2013-03-15 11:25:00,71.1,34.5,30.16,ENE,68,2.0,2.0,26,0.00,,,0.00,Wunderground v.1.15,2013-03-15 18:25:00,
2013-03-15 11:30:00,71.5,33.8,30.16,South,172,2.0,2.0,25,0.00,,,0.00,Wunderground v.1.15,2013-03-15 18:30:00,
2013-03-15 11:40:00,72.5,33.6,30.15,SE,146,2.0,2.0,24,0.00,,,0.00,Wunderground v.1.15,2013-03-15 18:40:00,
2013-03-15 11:45:00,72.7,31.6,30.15,NW,311,1.0,2.0,22,0.00,,,0.00,Wunderground v.1.15,2013-03-15 18:45:00,
2013-03-15 11:55:00,72.7,32.7,30.14,ENE,57,1.0,3.0,23,0.00,,,0.00,Wunderground v.1.15,2013-03-15 18:55:00,
2013-03-15 12:00:00,73.3,32.1,30.14,SSE,163,1.0,1.0,22,0.00,,,0.00,Wunderground v.1.15,2013-03-15 19:00:00,
2013-03-15 12:10:00,73.5,32.3,30.14,ENE,70,2.0,2.0,22,0.00,,,0.00,Wunderground v.1.15,2013-03-15 19:10:00,
2013-03-15 12:15:00,72.9,31.8,30.14,East,86,2.0,3.0,22,0.00,,,0.00,Wunderground v.1.15,2013-03-15 19:15:00,
2013-03-15 12:25:00,73.7,31.3,30.14,NE,39,2.0,2.0,21,0.00,,,0.00,Wunderground v.1.15,2013-03-15 19:25:00,
2013-03-15 12:30:00,74.0,32.7,30.13,East,81,1.0,2.0,22,0.00,,,0.00,Wunderground v.1.15,2013-03-15 19:30:00,
2013-03-15 12:40:00,75.6,32.9,30.13,SE,130,1.0,1.0,21,0.00,,,0.00,Wunderground v.1.15,2013-03-15 19:40:00,
2013-03-15 12:45:00,75.7,33.0,30.12,SSE,161,1.0,1.0,21,0.00,,,0.00,Wunderground v.1.15,2013-03-15 19:45:00,
2013-03-15 12:55:00,75.7,33.0,30.12,WNW,283,2.0,3.0,21,0.00,,,0.00,Wunderground v.1.15,2013-03-15 19:55:00,
2013-03-15 13:00:00,76.2,34.6,30.12,South,187,2.0,2.0,22,0.00,,,0.00,Wunderground v.1.15,2013-03-15 20:00:00,
2013-03-15 13:10:00,76.4,33.6,30.11,East,89,1.0,1.0,21,0.00,,,0.00,Wunderground v.1.15,2013-03-15 20:10:00,
2013-03-15 13:15:00,76.5,32.4,30.11,East,84,1.0,1.0,20,0.00,,,0.00,Wunderground v.1.15,2013-03-15 20:15:00,
2013-03-15 13:25:00,77.6,33.3,30.10,SE,143,2.0,2.0,20,0.00,,,0.00,Wunderground v.1.15,2013-03-15 20:25:00,
2013-03-15 13:30:00,78.4,35.2,30.10,SE,127,2.0,3.0,21,0.00,,,0.00,Wunderground v.1.15,2013-03-15 20:30:00,
2013-03-15 13:40:00,79.2,34.6,30.09,NE,53,2.0,2.0,20,0.00,,,0.00,Wunderground v.1.15,2013-03-15 20:40:00,
2013-03-15 13:45:00,79.8,36.4,30.08,North,359,2.0,2.0,21,0.00,,,0.00,Wunderground v.1.15,2013-03-15 20:45:00,
2013-03-15 13:55:00,78.8,34.3,30.08,East,81,4.0,5.0,20,0.00,,,0.00,Wunderground v.1.15,2013-03-15 20:55:00,
2013-03-15 14:00:00,79.5,33.6,30.07,ESE,119,3.0,3.0,19,0.00,,,0.00,Wunderground v.1.15,2013-03-15 21:00:00,
2013-03-15 14:10:00,79.0,34.5,30.07,ESE,114,2.0,3.0,20,0.00,,,0.00,Wunderground v.1.15,2013-03-15 21:10:00,
2013-03-15 14:15:00,79.6,35.0,30.06,East,93,2.0,3.0,20,0.00,,,0.00,Wunderground v.1.15,2013-03-15 21:15:00,
2013-03-15 14:25:00,79.7,35.1,30.06,ESE,113,2.0,2.0,20,0.00,,,0.00,Wunderground v.1.15,2013-03-15 21:25:00,
2013-03-15 14:30:00,79.7,33.8,30.06,SW,217,2.0,2.0,19,0.00,,,0.00,Wunderground v.1.15,2013-03-15 21:30:00,
2013-03-15 14:40:00,81.6,35.3,30.05,SE,143,2.0,2.0,19,0.00,,,0.00,Wunderground v.1.15,2013-03-15 21:40:00,
2013-03-15 14:45:00,81.7,35.4,30.05,NE,49,2.0,2.0,19,0.00,,,0.00,Wunderground v.1.15,2013-03-15 21:45:00,
2013-03-15 14:55:00,81.2,35.0,30.04,ENE,70,2.0,3.0,19,0.00,,,0.00,Wunderground v.1.15,2013-03-15 21:55:00,
2013-03-15 15:00:00,81.3,35.1,30.04,SE,144,2.0,5.0,19,0.00,,,0.00,Wunderground v.1.15,2013-03-15 22:00:00,
2013-03-15 15:10:00,81.7,34.1,30.03,NNE,20,2.0,2.0,18,0.00,,,0.00,Wunderground v.1.15,2013-03-15 22:10:00,
2013-03-15 15:15:00,83.0,35.1,30.03,SE,138,2.0,2.0,18,0.00,,,0.00,Wunderground v.1.15,2013-03-15 22:15:00,
2013-03-15 15:25:00,83.5,34.1,30.02,ENE,67,2.0,5.0,17,0.00,,,0.00,Wunderground v.1.15,2013-03-15 22:25:00,
2013-03-15 15:30:00,83.0,32.2,30.02,ESE,114,3.0,3.0,16,0.00,,,0.00,Wunderground v.1.15,2013-03-15 22:30:00,
2013-03-15 15:40:00,82.7,30.3,30.02,South,178,3.0,8.0,15,0.00,,,0.00,Wunderground v.1.15,2013-03-15 22:40:00,
2013-03-15 15:45:00,82.2,29.9,30.01,South,180,5.0,8.0,15,0.00,,,0.00,Wunderground v.1.15,2013-03-15 22:45:00,
2013-03-15 15:55:00,81.4,29.3,30.01,SSE,163,8.0,8.0,15,0.00,,,0.00,Wunderground v.1.15,2013-03-15 22:55:00,
2013-03-15 16:00:00,81.6,31.0,30.01,South,189,8.0,8.0,16,0.00,,,0.00,Wunderground v.1.15,2013-03-15 23:00:00,
2013-03-15 16:10:00,81.7,31.1,30.01,SSW,210,8.0,8.0,16,0.00,,,0.00,Wunderground v.1.15,2013-03-15 23:10:00,
2013-03-15 16:15:00,81.2,30.7,30.01,South,172,7.0,8.0,16,0.00,,,0.00,Wunderground v.1.15,2013-03-15 23:15:00,
2013-03-15 16:25:00,81.5,32.5,30.00,SSW,203,4.0,7.0,17,0.00,,,0.00,Wunderground v.1.15,2013-03-15 23:25:00,
2013-03-15 16:30:00,81.4,32.4,30.01,WNW,282,4.0,4.0,17,0.00,,,0.00,Wunderground v.1.15,2013-03-15 23:30:00,
2013-03-15 16:40:00,82.1,31.4,30.01,SW,230,5.0,7.0,16,0.00,,,0.00,Wunderground v.1.15,2013-03-15 23:40:00,
2013-03-15 16:45:00,81.8,31.2,30.00,West,259,7.0,7.0,16,0.00,,,0.00,Wunderground v.1.15,2013-03-15 23:45:00,
2013-03-15 16:55:00,80.3,31.5,30.01,WSW,250,7.0,10.0,17,0.00,,,0.00,Wunderground v.1.15,2013-03-15 23:55:00,
2013-03-15 17:00:00,79.8,31.1,30.01,SSE,164,10.0,16.0,17,0.00,,,0.00,Wunderground v.1.15,2013-03-16 00:00:00,
2013-03-15 17:10:00,78.6,31.5,30.00,South,174,10.0,10.0,18,0.00,,,0.00,Wunderground v.1.15,2013-03-16 00:10:00,
2013-03-15 17:15:00,78.0,32.4,30.00,SW,216,9.0,11.0,19,0.00,,,0.00,Wunderground v.1.15,2013-03-16 00:15:00,
2013-03-15 17:25:00,78.4,32.7,30.00,WSW,240,7.0,8.0,19,0.00,,,0.00,Wunderground v.1.15,2013-03-16 00:25:00,
2013-03-15 17:30:00,78.6,32.9,30.00,SW,226,6.0,6.0,19,0.00,,,0.00,Wunderground v.1.15,2013-03-16 00:30:00,
2013-03-15 17:40:00,77.3,33.1,30.00,SSW,200,7.0,7.0,20,0.00,,,0.00,Wunderground v.1.15,2013-03-16 00:40:00,
2013-03-15 17:45:00,76.9,32.8,30.00,SW,231,6.0,7.0,20,0.00,,,0.00,Wunderground v.1.15,2013-03-16 00:45:00,
2013-03-15 17:55:00,75.5,32.8,30.00,SSW,210,4.0,5.0,21,0.00,,,0.00,Wunderground v.1.15,2013-03-16 00:55:00,
2013-03-15 18:00:00,74.7,33.3,30.00,SW,233,5.0,7.0,22,0.00,,,0.00,Wunderground v.1.15,2013-03-16 01:00:00,
2013-03-15 18:10:00,73.8,32.6,30.00,SSW,198,5.0,5.0,22,0.00,,,0.00,Wunderground v.1.15,2013-03-16 01:10:00,
2013-03-15 18:15:00,73.4,32.2,30.00,SW,229,4.0,11.0,22,0.00,,,0.00,Wunderground v.1.15,2013-03-16 01:15:00,
2013-03-15 18:25:00,72.8,32.8,30.00,WSW,256,6.0,6.0,23,0.00,,,0.00,Wunderground v.1.15,2013-03-16 01:25:00,
2013-03-15 18:30:00,72.4,32.5,30.00,SSW,192,6.0,6.0,23,0.00,,,0.00,Wunderground v.1.15,2013-03-16 01:30:00,
2013-03-15 18:40:00,72.0,32.1,30.01,SE,141,7.0,7.0,23,0.00,,,0.00,Wunderground v.1.15,2013-03-16 01:40:00,
2013-03-15 18:45:00,71.6,31.8,30.01,SSW,210,7.0,7.0,23,0.00,,,0.00,Wunderground v.1.15,2013-03-16 01:45:00,
2013-03-15 18:55:00,71.1,32.5,30.01,SSW,209,6.0,9.0,24,0.00,,,0.00,Wunderground v.1.15,2013-03-16 01:55:00,
2013-03-15 19:00:00,70.8,32.2,30.01,South,177,5.0,5.0,24,0.00,,,0.00,Wunderground v.1.15,2013-03-16 02:00:00,
2013-03-15 19:10:00,70.5,30.9,30.01,WSW,237,6.0,6.0,23,0.00,,,0.00,Wunderground v.1.15,2013-03-16 02:10:00,
2013-03-15 19:15:00,70.3,31.8,30.01,WNW,300,6.0,6.0,24,0.00,,,0.00,Wunderground v.1.15,2013-03-16 02:15:00,
2013-03-15 19:25:00,70.2,31.7,30.01,WSW,241,6.0,9.0,24,0.00,,,0.00,Wunderground v.1.15,2013-03-16 02:25:00,
2013-03-15 19:30:00,70.1,31.6,30.01,West,275,5.0,5.0,24,0.00,,,0.00,Wunderground v.1.15,2013-03-16 02:30:00,
2013-03-15 19:40:00,69.6,31.2,30.01,SW,227,4.0,4.0,24,0.00,,,0.00,Wunderground v.1.15,2013-03-16 02:40:00,
2013-03-15 19:45:00,69.4,31.0,30.01,SSW,206,4.0,4.0,24,0.00,,,0.00,Wunderground v.1.15,2013-03-16 02:45:00,
2013-03-15 19:55:00,69.0,31.7,30.02,West,270,3.0,4.0,25,0.00,,,0.00,Wunderground v.1.15,2013-03-16 02:55:00,
2013-03-15 20:00:00,68.6,31.3,30.02,SSW,193,3.0,3.0,25,0.00,,,0.00,Wunderground v.1.15,2013-03-16 03:00:00,
2013-03-15 20:10:00,67.9,31.7,30.02,SW,223,2.0,2.0,26,0.00,,,0.00,Wunderground v.1.15,2013-03-16 03:10:00,
2013-03-15 20:15:00,67.5,31.4,30.02,SSE,165,1.0,3.0,26,0.00,,,0.00,Wunderground v.1.15,2013-03-16 03:15:00,
2013-03-15 20:25:00,66.7,31.6,30.02,South,182,1.0,2.0,27,0.00,,,0.00,Wunderground v.1.15,2013-03-16 03:25:00,
2013-03-15 20:30:00,65.9,31.8,30.02,SW,229,2.0,2.0,28,0.00,,,0.00,Wunderground v.1.15,2013-03-16 03:30:00,
2013-03-15 20:40:00,65.4,31.4,30.02,SSE,163,2.0,2.0,28,0.00,,,0.00,Wunderground v.1.15,2013-03-16 03:40:00,
2013-03-15 20:45:00,65.2,31.2,30.02,South,184,3.0,3.0,28,0.00,,,0.00,Wunderground v.1.15,2013-03-16 03:45:00,
2013-03-15 20:55:00,66.0,31.0,30.01,South,169,3.0,4.0,27,0.00,,,0.00,Wunderground v.1.15,2013-03-16 03:55:00,
2013-03-15 21:00:00,65.8,30.9,30.01,SSE,165,4.0,6.0,27,0.00,,,0.00,Wunderground v.1.15,2013-03-16 04:00:00,
2013-03-15 21:10:00,65.6,30.7,30.01,SSE,158,5.0,5.0,27,0.00,,,0.00,Wunderground v.1.15,2013-03-16 04:10:00,
2013-03-15 21:15:00,65.4,31.4,30.02,WNW,294,3.0,5.0,28,0.00,,,0.00,Wunderground v.1.15,2013-03-16 04:15:00,
2013-03-15 21:25:00,62.8,30.0,30.02,West,281,1.0,2.0,29,0.00,,,0.00,Wunderground v.1.15,2013-03-16 04:25:00,
2013-03-15 21:30:00,61.8,30.0,30.02,WNW,284,1.0,1.0,30,0.00,,,0.00,Wunderground v.1.15,2013-03-16 04:30:00,
2013-03-15 21:35:00,62.0,31.0,30.02,West,266,1.0,2.0,31,0.00,,,0.00,Wunderground v.1.15,2013-03-16 04:35:00,
2013-03-15 21:40:00,62.1,31.1,30.02,NW,309,2.0,2.0,31,0.00,,,0.00,Wunderground v.1.15,2013-03-16 04:40:00,
2013-03-15 21:45:00,61.3,30.4,30.02,NNW,327,1.0,2.0,31,0.00,,,0.00,Wunderground v.1.15,2013-03-16 04:45:00,
2013-03-15 21:55:00,59.8,30.6,30.02,WNW,295,1.0,1.0,33,0.00,,,0.00,Wunderground v.1.15,2013-03-16 04:55:00,
2013-03-15 22:00:00,59.4,31.0,30.02,NW,307,1.0,1.0,34,0.00,,,0.00,Wunderground v.1.15,2013-03-16 05:00:00,